AAL972 KDFW-KAUS

Flight info

Callsign AAL972
Flight time 0h 39m
Altitude 28000
Route JASPA7 WINDU SEWZY6
Aircraft B738/M-SDE2E3FGHIRWXY/LB1

Departure

Time 2026-05-07 04:05
Airport Dallas Fort Worth International Airport (KDFW)

Arrival

Time 2026-05-07 04:44
Airport Austin Bergstrom International Airport (KAUS)
Time Latitude Longitude Altitude Speed Heading
2026-05-07 03:09 32.89593 -97.04565 597 ft 0 kts 91°
2026-05-07 03:27 32.89593 -97.04573 597 ft 4 kts 93°
2026-05-07 03:27 32.89593 -97.04604 597 ft 4 kts 85°
2026-05-07 03:27 32.89592 -97.04636 597 ft 4 kts 95°
2026-05-07 03:28 32.89598 -97.04664 597 ft 4 kts 140°
2026-05-07 03:28 32.89608 -97.04670 597 ft 0 kts 179°
2026-05-07 03:31 32.89607 -97.04670 597 ft 0 kts 179°
2026-05-07 03:31 32.89596 -97.04670 597 ft 3 kts 179°
2026-05-07 03:31 32.89567 -97.04671 597 ft 5 kts 181°
2026-05-07 03:32 32.89521 -97.04672 597 ft 3 kts 180°
2026-05-07 03:32 32.89511 -97.04690 597 ft 4 kts 253°
2026-05-07 03:32 32.89505 -97.04751 597 ft 8 kts 250°
2026-05-07 03:32 32.89449 -97.04769 597 ft 9 kts 181°
2026-05-07 03:33 32.89387 -97.04768 597 ft 9 kts 179°
2026-05-07 03:33 32.89326 -97.04769 597 ft 9 kts 180°
2026-05-07 03:33 32.89261 -97.04769 597 ft 11 kts 180°
2026-05-07 03:33 32.89173 -97.04770 597 ft 15 kts 180°
2026-05-07 03:34 32.89056 -97.04771 597 ft 16 kts 181°
2026-05-07 03:34 32.88954 -97.04771 597 ft 13 kts 180°
2026-05-07 03:34 32.88862 -97.04771 597 ft 13 kts 180°
2026-05-07 03:34 32.88773 -97.04771 597 ft 13 kts 180°
2026-05-07 03:35 32.88686 -97.04772 597 ft 12 kts 181°
2026-05-07 03:35 32.88602 -97.04772 597 ft 12 kts 180°
2026-05-07 03:35 32.88521 -97.04761 597 ft 12 kts 149°
2026-05-07 03:35 32.88504 -97.04678 597 ft 11 kts 91°
2026-05-07 03:36 32.88498 -97.04601 597 ft 5 kts 137°
2026-05-07 03:36 32.88466 -97.04607 597 ft 5 kts 197°
2026-05-07 03:36 32.88434 -97.04615 597 ft 2 kts 193°
2026-05-07 03:36 32.88434 -97.04623 597 ft 2 kts 270°
2026-05-07 03:37 32.88436 -97.04664 597 ft 6 kts 273°
2026-05-07 03:37 32.88437 -97.04676 597 ft 0 kts 274°
2026-05-07 03:59 32.88437 -97.04690 597 ft 3 kts 273°
2026-05-07 03:59 32.88440 -97.04734 597 ft 7 kts 273°
2026-05-07 03:59 32.88421 -97.04802 597 ft 11 kts 215°
2026-05-07 04:00 32.88338 -97.04809 597 ft 14 kts 179°
2026-05-07 04:00 32.88237 -97.04810 597 ft 14 kts 180°
2026-05-07 04:00 32.88139 -97.04810 597 ft 14 kts 180°
2026-05-07 04:00 32.88047 -97.04810 597 ft 12 kts 180°
2026-05-07 04:01 32.87990 -97.04834 597 ft 5 kts 242°
2026-05-07 04:01 32.87985 -97.04877 597 ft 6 kts 268°
2026-05-07 04:01 32.87984 -97.04928 597 ft 6 kts 270°
2026-05-07 04:01 32.87984 -97.04973 597 ft 0 kts 271°
2026-05-07 04:02 32.87985 -97.04983 597 ft 6 kts 271°
2026-05-07 04:03 32.87990 -97.05081 597 ft 10 kts 294°
2026-05-07 04:03 32.88031 -97.05092 597 ft 0 kts 360°
2026-05-07 04:04 32.88084 -97.05092 597 ft 28 kts
2026-05-07 04:04 32.88529 -97.05090 597 ft 98 kts
2026-05-07 04:04 32.89413 -97.05086 599 ft 153 kts
2026-05-07 04:04 32.90548 -97.05091 1067 ft 163 kts 359°
2026-05-07 04:05 32.91634 -97.05127 2012 ft 147 kts
2026-05-07 04:05 32.92720 -97.05161 2438 ft 171 kts
2026-05-07 04:05 32.93997 -97.05199 2747 ft 193 kts 358°
2026-05-07 04:05 32.95357 -97.05674 3006 ft 217 kts 342°
2026-05-07 04:06 32.96839 -97.06341 3364 ft 234 kts 345°
2026-05-07 04:06 32.98403 -97.06994 3996 ft 242 kts 343°
2026-05-07 04:06 32.99888 -97.07984 4745 ft 251 kts 317°
2026-05-07 04:06 33.00808 -97.09741 5550 ft 253 kts 290°
2026-05-07 04:07 33.01048 -97.11798 6538 ft 250 kts 271°
2026-05-07 04:07 33.00948 -97.13864 7374 ft 250 kts 267°
2026-05-07 04:07 33.00805 -97.15926 8242 ft 249 kts 266°
2026-05-07 04:07 33.00624 -97.17993 8997 ft 255 kts 264°
2026-05-07 04:08 33.00400 -97.20108 9787 ft 259 kts 263°
2026-05-07 04:08 33.00168 -97.22252 10478 ft 267 kts 260°
2026-05-07 04:08 32.99457 -97.24404 10664 ft 295 kts 240°
2026-05-07 04:08 32.98082 -97.26367 10839 ft 322 kts 229°
2026-05-07 04:09 32.96335 -97.28178 11014 ft 348 kts 215°
2026-05-07 04:09 32.93993 -97.29161 11498 ft 366 kts 196°
2026-05-07 04:09 32.91421 -97.29344 12239 ft 375 kts 184°
2026-05-07 04:09 32.88805 -97.29165 12892 ft 380 kts 182°
2026-05-07 04:10 32.86162 -97.28947 13548 ft 383 kts 183°
2026-05-07 04:10 32.83476 -97.28759 14181 ft 386 kts 184°
2026-05-07 04:10 32.80783 -97.28604 14809 ft 389 kts 184°
2026-05-07 04:10 32.78076 -97.28400 15428 ft 396 kts 179°
2026-05-07 04:11 32.75376 -97.27439 16042 ft 412 kts 165°
2026-05-07 04:11 32.72711 -97.26161 16656 ft 415 kts 165°
2026-05-07 04:11 32.70029 -97.24884 17221 ft 419 kts 166°
2026-05-07 04:11 32.67295 -97.23598 17746 ft 422 kts 166°
2026-05-07 04:12 32.65484 -97.22755 18237 ft 422 kts 166°
2026-05-07 04:12 32.62743 -97.21488 18781 ft 424 kts 166°
2026-05-07 04:12 32.59985 -97.20225 19255 ft 427 kts 167°
2026-05-07 04:12 32.57215 -97.18961 19716 ft 431 kts 167°
2026-05-07 04:13 32.54406 -97.17681 20204 ft 433 kts 167°
2026-05-07 04:13 32.51588 -97.16397 20689 ft 435 kts 167°
2026-05-07 04:13 32.48753 -97.15106 21151 ft 438 kts 168°
2026-05-07 04:13 32.45899 -97.13807 21594 ft 441 kts 168°
2026-05-07 04:14 32.43025 -97.12500 22031 ft 444 kts 168°
2026-05-07 04:14 32.40134 -97.11185 22441 ft 446 kts 168°
2026-05-07 04:14 32.37231 -97.09864 22905 ft 448 kts 168°
2026-05-07 04:14 32.34317 -97.08539 23300 ft 451 kts 168°
2026-05-07 04:15 32.31375 -97.07206 23672 ft 454 kts 168°
2026-05-07 04:15 32.28406 -97.06030 23989 ft 444 kts 178°
2026-05-07 04:15 32.25406 -97.05853 24342 ft 425 kts 193°
2026-05-07 04:15 32.22450 -97.06044 24762 ft 426 kts 192°
2026-05-07 04:16 32.19482 -97.06181 25109 ft 428 kts 191°
2026-05-07 04:16 32.16498 -97.06291 25424 ft 430 kts 191°
2026-05-07 04:16 32.13496 -97.06389 25670 ft 433 kts 191°
2026-05-07 04:16 32.10471 -97.06482 25895 ft 437 kts 191°
2026-05-07 04:17 32.07435 -97.06573 26228 ft 437 kts 191°
2026-05-07 04:17 32.04383 -97.06663 26607 ft 437 kts 191°
2026-05-07 04:17 32.01379 -97.06753 26963 ft 437 kts 191°
2026-05-07 04:17 31.98343 -97.06844 27353 ft 435 kts 191°
2026-05-07 04:18 31.95327 -97.06936 27830 ft 432 kts 191°
2026-05-07 04:18 31.92330 -97.07027 28079 ft 432 kts 191°
2026-05-07 04:18 31.89325 -97.07122 28072 ft 431 kts 191°
2026-05-07 04:19 31.83325 -97.07310 28069 ft 432 kts 191°
2026-05-07 04:19 31.77288 -97.07502 28067 ft 435 kts 191°
2026-05-07 04:20 31.71229 -97.07691 28054 ft 437 kts 190°
2026-05-07 04:20 31.65142 -97.07878 28044 ft 437 kts 190°
2026-05-07 04:21 31.56037 -97.08159 28070 ft 435 kts 190°
2026-05-07 04:21 31.50169 -97.09155 27448 ft 424 kts 205°
2026-05-07 04:22 31.47392 -97.10300 26606 ft 421 kts 206°
2026-05-07 04:22 31.44666 -97.11443 25629 ft 422 kts 206°
2026-05-07 04:22 31.41888 -97.12589 24754 ft 423 kts 206°
2026-05-07 04:22 31.39118 -97.13701 23954 ft 420 kts 205°
2026-05-07 04:23 31.36357 -97.14789 23545 ft 416 kts 205°
2026-05-07 04:23 31.33634 -97.15852 23233 ft 407 kts 205°
2026-05-07 04:23 31.31000 -97.16874 23020 ft 390 kts 205°
2026-05-07 04:23 31.28478 -97.17854 22864 ft 374 kts 205°
2026-05-07 04:24 31.26058 -97.18796 22704 ft 360 kts 206°
2026-05-07 04:24 31.23716 -97.19711 22106 ft 357 kts 206°
2026-05-07 04:24 31.21359 -97.20636 21529 ft 356 kts 205°
2026-05-07 04:24 31.19015 -97.21552 21022 ft 353 kts 205°
2026-05-07 04:25 31.16700 -97.22454 20540 ft 349 kts 205°
2026-05-07 04:25 31.14401 -97.23349 20073 ft 346 kts 205°
2026-05-07 04:25 31.12132 -97.24232 19621 ft 343 kts 205°
2026-05-07 04:25 31.09876 -97.25111 19174 ft 340 kts 205°
2026-05-07 04:26 31.07642 -97.25980 18735 ft 337 kts 204°
2026-05-07 04:26 31.05428 -97.26842 18262 ft 335 kts 204°
2026-05-07 04:26 31.03218 -97.27701 17744 ft 333 kts 205°
2026-05-07 04:26 31.01030 -97.28551 17282 ft 330 kts 205°
2026-05-07 04:27 30.98895 -97.29378 17150 ft 318 kts 205°
2026-05-07 04:27 30.96830 -97.30177 16987 ft 308 kts 205°
2026-05-07 04:27 30.94832 -97.30951 16844 ft 298 kts 205°
2026-05-07 04:27 30.92895 -97.31700 16703 ft 288 kts 205°
2026-05-07 04:28 30.91001 -97.32441 16308 ft 288 kts 205°
2026-05-07 04:28 30.89109 -97.33185 15988 ft 286 kts 205°
2026-05-07 04:28 30.87227 -97.33925 15652 ft 285 kts 205°
2026-05-07 04:28 30.85351 -97.34660 15325 ft 284 kts 205°
2026-05-07 04:29 30.83482 -97.35391 15006 ft 283 kts 205°
2026-05-07 04:29 30.81622 -97.36119 14685 ft 281 kts 206°
2026-05-07 04:29 30.79820 -97.36980 14298 ft 281 kts 212°
2026-05-07 04:29 30.78070 -97.37996 13968 ft 281 kts 213°
2026-05-07 04:30 30.76332 -97.39027 13606 ft 280 kts 213°
2026-05-07 04:30 30.74600 -97.40046 13248 ft 279 kts 212°
2026-05-07 04:30 30.72863 -97.41054 12901 ft 278 kts 212°
2026-05-07 04:30 30.71133 -97.42047 12577 ft 277 kts 212°
2026-05-07 04:31 30.69407 -97.43034 12263 ft 278 kts 212°
2026-05-07 04:31 30.67663 -97.44028 11943 ft 281 kts 211°
2026-05-07 04:31 30.65899 -97.45014 11598 ft 282 kts 209°
2026-05-07 04:31 30.64077 -97.45875 11213 ft 284 kts 206°
2026-05-07 04:32 30.62227 -97.46690 10887 ft 283 kts 206°
2026-05-07 04:32 30.60407 -97.47486 10563 ft 283 kts 206°
2026-05-07 04:32 30.58551 -97.48303 10261 ft 281 kts 205°
2026-05-07 04:32 30.56777 -97.49086 10117 ft 273 kts 206°
2026-05-07 04:33 30.55023 -97.49864 9928 ft 268 kts 206°
2026-05-07 04:33 30.53283 -97.50641 9615 ft 267 kts 206°
2026-05-07 04:33 30.51551 -97.51416 9311 ft 266 kts 205°
2026-05-07 04:33 30.49831 -97.52186 9019 ft 264 kts 205°
2026-05-07 04:34 30.48118 -97.52954 8723 ft 263 kts 205°
2026-05-07 04:34 30.46411 -97.53718 8436 ft 262 kts 205°
2026-05-07 04:34 30.44709 -97.54480 8149 ft 262 kts 205°
2026-05-07 04:34 30.43010 -97.55240 7857 ft 262 kts 204°
2026-05-07 04:35 30.41313 -97.55998 7571 ft 261 kts 204°
2026-05-07 04:35 30.39614 -97.56738 7269 ft 262 kts 200°
2026-05-07 04:35 30.37793 -97.56987 6985 ft 266 kts 182°
2026-05-07 04:35 30.35947 -97.56945 6703 ft 265 kts 181°
2026-05-07 04:36 30.34101 -97.56917 6442 ft 264 kts 183°
2026-05-07 04:36 30.32288 -97.56905 6304 ft 257 kts 182°
2026-05-07 04:36 30.30531 -97.56901 6182 ft 250 kts 184°
2026-05-07 04:36 30.28805 -97.56901 6050 ft 243 kts 182°
2026-05-07 04:37 30.27123 -97.56889 5814 ft 243 kts 183°
2026-05-07 04:37 30.25435 -97.56843 5586 ft 242 kts 181°
2026-05-07 04:37 30.23755 -97.56796 5352 ft 240 kts 180°
2026-05-07 04:37 30.22099 -97.56750 5217 ft 233 kts 181°
2026-05-07 04:38 30.20519 -97.56705 5097 ft 222 kts 182°
2026-05-07 04:38 30.19024 -97.56665 5014 ft 208 kts 183°
2026-05-07 04:38 30.17617 -97.56630 4991 ft 200 kts 181°
2026-05-07 04:38 30.16196 -97.56596 4630 ft 216 kts 180°
2026-05-07 04:39 30.14684 -97.56559 4255 ft 218 kts 179°
2026-05-07 04:39 30.13185 -97.56521 3980 ft 212 kts 179°
2026-05-07 04:39 30.11719 -97.56523 3703 ft 208 kts 185°
2026-05-07 04:39 30.10371 -97.56972 3453 ft 200 kts 213°
2026-05-07 04:40 30.09367 -97.57991 3225 ft 186 kts 235°
2026-05-07 04:40 30.08734 -97.59215 2978 ft 172 kts 253°
2026-05-07 04:40 30.08425 -97.60544 2787 ft 173 kts 268°
2026-05-07 04:40 30.08468 -97.61896 2605 ft 161 kts 287°
2026-05-07 04:41 30.08828 -97.63064 2372 ft 150 kts 303°
2026-05-07 04:41 30.09391 -97.64028 2166 ft 142 kts 318°
2026-05-07 04:41 30.10100 -97.64750 2012 ft 132 kts 332°
2026-05-07 04:41 30.10897 -97.65251 1867 ft 129 kts 343°
2026-05-07 04:42 30.11752 -97.65522 1700 ft 127 kts 357°
2026-05-07 04:42 30.12639 -97.65599 1537 ft 129 kts
2026-05-07 04:42 30.13523 -97.65621 1361 ft 130 kts
2026-05-07 04:42 30.14459 -97.65644 1222 ft 136 kts 359°
2026-05-07 04:43 30.15390 -97.65660 1074 ft 133 kts 359°
2026-05-07 04:43 30.16301 -97.65684 894 ft 130 kts
2026-05-07 04:43 30.17229 -97.65707 678 ft 135 kts 359°
2026-05-07 04:43 30.18150 -97.65730 535 ft 128 kts 360°
2026-05-07 04:44 30.18929 -97.65752 528 ft 91 kts 358°
2026-05-07 04:44 30.19411 -97.65765 527 ft 45 kts 358°
2026-05-07 04:44 30.19621 -97.65775 526 ft 20 kts 354°
2026-05-07 04:44 30.19755 -97.65805 524 ft 19 kts 339°
2026-05-07 04:45 30.19854 -97.65867 525 ft 13 kts 329°
2026-05-07 04:45 30.19913 -97.65920 526 ft 9 kts 298°
2026-05-07 04:45 30.19921 -97.65988 526 ft 8 kts 270°
2026-05-07 04:45 30.19920 -97.66054 526 ft 8 kts 269°
2026-05-07 04:46 30.19918 -97.66127 526 ft 11 kts 268°
2026-05-07 04:46 30.19915 -97.66245 526 ft 17 kts 269°
2026-05-07 04:46 30.19914 -97.66334 526 ft 0 kts 268°
2026-05-07 04:47 30.19914 -97.66353 526 ft 7 kts 276°
2026-05-07 04:47 30.19979 -97.66390 526 ft 15 kts 358°
2026-05-07 04:47 30.20073 -97.66397 526 ft 11 kts 336°
2026-05-07 04:47 30.20091 -97.66478 526 ft 11 kts 269°
2026-05-07 04:48 30.20102 -97.66528 526 ft 5 kts 324°
2026-05-07 04:48 30.20130 -97.66542 526 ft 4 kts 338°
2026-05-07 04:48 30.20149 -97.66551 526 ft 2 kts 338°
2026-05-07 04:48 30.20152 -97.66552 526 ft 0 kts 339°
2026-05-07 04:49 30.20155 -97.66554 526 ft 0 kts 339°